Miscellaneous Local Product
Issued by NWS Hastings, NE

Home | Current Version | Previous Version | Graphics & Text | Print | Product List | Glossary On
Versions: 1 2 3 4 5 6 7 8 9 10 11 12 13 14 15 16 17 18 19 20 21 22 23 24 25 26 27 28 29 30 31 32 33 34 35 36 37 38 39 40 41 42 43 44 45 46 47 48 49 50
000
AXUS43 KGID 032102
MISGRI

GID CWA HOURLY WEATHER ROUNDUP
NATIONAL WEATHER SERVICE HASTINGS NE
400 PM CDT FRI JUL 03 2015

NOTE: "FAIR" INDICATES FEW OR NO CLOUDS BELOW 12,000 FEET WITH NO
SIGNIFICANT WEATHER AND/OR OBSTRUCTIONS TO VISIBILITY.

...SOUTH CENTRAL NEBRASKA...

CITY           SKY/WX    TMP DP  RH WIND       PRES   REMARKS
GRAND ISLAND   SUNNY     75  60  59 CALM      30.02F
HASTINGS       CLOUDY    76  61  59 CALM      30.02F
KEARNEY        SUNNY     77  61  57 CALM      30.02F
ORD            MOSUNNY   81  59  47 SE5       29.99F
YORK           CLOUDY    73  64  73 NE7       30.02F
AURORA         PTSUNNY   75  63  65 NE6       30.02S
LEXINGTON      MOSUNNY   81  61  51 NW3       30.02F
HOLDREGE       PTSUNNY   76  59  56 NE3       30.03F
HEBRON         CLOUDY    76  60  58 N3        30.01S

...NEBRASKA PANHANDLE...

CITY           SKY/WX    TMP DP  RH WIND       PRES   REMARKS
CHADRON        SUNNY     83  53  35 CALM      30.02F
ALLIANCE       SUNNY     80  57  45 SE5       30.06F
SCOTTSBLUFF    SUNNY     84  54  35 MISG      30.05F
SIDNEY         MOSUNNY   83  56  39 NE7       30.09F

...WESTERN AND NORTH CENTRAL NEBRASKA...

CITY           SKY/WX    TMP DP  RH WIND       PRES   REMARKS
VALENTINE      PTSUNNY   81  59  47 S7        30.01F
AINSWORTH      MOSUNNY   81  60  48 E5        30.02F
ONEILL         SUNNY     78  63  59 SW5       30.01F
BROKEN BOW     MOSUNNY   81  61  50 SE5       30.01F
IMPERIAL       SUNNY     86  53  32 VRB3      30.04F
NORTH PLATTE   MOSUNNY   80  57  45 CALM      30.03S
MCCOOK         SUNNY     83  60  45 MISG      30.01F

...EASTERN NEBRASKA...

CITY           SKY/WX    TMP DP  RH WIND       PRES   REMARKS
NORFOLK        MOSUNNY   77  63  61 VRB3      30.00F
SO SIOUX CITY  SUNNY     78  59  51 NW5       29.98F
TEKAMAH        SUNNY     80  55  42 SW5       29.98F
COLUMBUS       PTSUNNY   73  61  64 N5        30.03S
ALBION         SUNNY     76  61  58 W3        30.01F
OMAHA EPPLEY   MOSUNNY   76  56  49 CALM      29.98F
OFFUTT AFB     SUNNY     77  54  45 CALM      29.98S
MILLARD        SUNNY     78  51  40 CALM      29.98F
LINCOLN        PTSUNNY   79  61  53 N7        29.99F
NEBRASKA CITY  SUNNY     76  50  39 NE6       29.99F
BEATRICE       SUNNY     78  58  51 N3        29.99F
FALLS CITY     SUNNY     79  56  45 NE6       29.97F

...NORTHERN KANSAS...

CITY           SKY/WX    TMP DP  RH WIND       PRES   REMARKS
GOODLAND       PTSUNNY   84  54  35 VRB3      30.05F
HILL CITY      SUNNY     86  59  39 E7G20     30.00F
NORTON         CLEAR     81  54  39 NE9       30.01F
PHILLIPSBURG   SUNNY     84  59  42 NW7       30.00F HAZE
SMITH CENTER   PTSUNNY   81  57  44 NE8       30.00F
HAYS           MOSUNNY   82  59  44 N10G20    30.00F
RUSSELL        MOSUNNY   84  58  40 VRB7G16   29.97F
CONCORDIA      MOSUNNY   79  64  60 NE7       29.99F
SALINA         MOSUNNY   84  61  45 NE10      29.97F
TOPEKA         PTSUNNY   80  61  52 NE10      29.95F



USA.gov is the U.S. government's official web portal to all federal, state and local government web resources and services.